Find Starlink 1992

NORAD ID: 47632 Int'l Des: 2021-012 Owner: SPXS Country: US Constellation: starlink operational
LEOCIRCULAR

当前视图

正在加载3D地球...

About Starlink 1992

Starlink 1992 (NORAD 47632) is a starlink constellation satellite (v1.0) launched Feb 16, 2021 by SPXS of US. It operates in LEO, CIRCULAR orbit with a mass of 260.00 kg.

关于 Starlink 1992

正在加载描述...

即将过境

Passes for default location (London). Set your location on the main map for personalized predictions.

高度历史

Loading altitude history...

两行轨道根数

1 47632U 21012N 26174.80278708 -.00000861 00000-0 -15991-4 0 9994
2 47632 53.1589 199.0288 0001221 83.5562 276.5579 15.31702221297617
Epoch: Jun 23, 2026 • Age: 28 hours

当前状态

高度 483.2 km
速度 7.62 km/s
星下点 -36.84°S, 102.13°W
发射日期 Feb 16, 2021
运行时间 5.3 years
类型 internet

技术详情

分类 Payload
质量 260.00 kg
干质量 248.00 kg
总质量 260.00 kg
长度 0.20 m
直径 2.80 m
跨度 9.00 m
形状 Box + pan
制造商 SPXS
平台类型 Starlink
阶段状态 In Orbit
所有者/国家 SPXS/US

Most Searched